Regional Weather Roundup
Issued by NWS

Home | Current Version | Previous Version | Text Only | Print | Product List | Glossary Off
Versions: 1 2 3 4 5 6 7 8 9 10 11 12 13 14 15 16 17 18 19 20 21 22 23 24 25 26 27 28 29 30 31 32 33 34 35 36 37 38 39 40 41 42 43 44 45 46 47 48 49 50

000
ASUS45 KABQ 190910
RWRNM
WEATHER ROUNDUP FOR NEW MEXICO
NATIONAL WEATHER SERVICE ALBUQUERQUE NM
300 AM MDT FRI SEP 19 2014

NOTE: "FAIR" MEANS FEW OR NO CLOUDS BELOW 12,000 FEET AGL WITH NO
       SIGNIFICANT WEATHER OR OBSTRUCTIONS TO VISION.

      THIS PRODUCT IS RELEASED AS TWO VERSIONS.  ONE VERSION NEAR
      THE TOP OF THE HOUR CONTAINING PRELIMINARY DATA FROM ALBUQUERQUE
      AND OTHER STATIONS.  A FINAL VERSION WITH ADDITIONAL DATA IS
      ISSUED ABOUT 10 MINUTES AFTER THE HOUR.

NMZ501-503-504-510>518-191000-
NORTHWEST PLATEAU/NORTHCENTRAL MOUNTAINS

CITY           SKY/WX    TMP DP  RH WIND       PRES   REMARKS
FARMINGTON     CLEAR     63  42  46 E8        30.03S
LOS ALAMOS     CLEAR     57  54  88 SW6       30.18F
SANTA FE       CLEAR     58  52  80 CALM      30.13F
TAOS           CLEAR     52  46  82 CALM      30.18F
ANGEL FIRE     FOG       43  40  92 CALM      30.26F VSB 1/4

$$
NMZ402-403-502-505>509-191000-
WESTCENTRAL MOUNTAINS/SOUTHWEST MOUNTAINS

CITY           SKY/WX    TMP DP  RH WIND       PRES   REMARKS
GALLUP         CLEAR     49  43  80 E3        30.13R
GRANTS         CLEAR     50  46  87 CALM      30.15S
SILVER CITY    FOG       59  59 100 CALM      30.07S VSB 1/4

$$
NMZ407-409-411-412-191000-
SOUTHERN DESERTS

CITY           SKY/WX    TMP DP  RH WIND       PRES   REMARKS
LORDSBURG      CLOUDY    63  63 100 MISG      29.99F
DEMING         CLOUDY    64  63  96 CALM      29.99F
LAS CRUCES     CLOUDY    64  64  98 CALM      30.00S
HOLLOMAN AFB   RAIN      64  59  82 CALM      29.97F
ALAMOGORDO     HVY RAIN  64  64 100 W8        29.99S
T OR C         CLOUDY    63  61  93 NW3       30.01S

$$
NMZ519>523-191000-
CENTRAL VALLEYS/CENTRAL HIGHLANDS

CITY           SKY/WX    TMP DP  RH WIND       PRES   REMARKS
ALBUQUERQUE    MOCLDY    67  58  72 N6        30.06F
DOUBLE EAGLE   PTCLDY    57  55  93 NW5       30.10S
MORIARTY ARPT  CLOUDY    56  53  89 CALM      30.13F
CLINES CORNERS CLOUDY    58  56  93 E7        30.15F
BELEN          PTSUNNY   60  59  96 CALM      30.05S
SOCORRO        FAIR      61  59  93 W6        30.03S

$$
NMZ524>526-539-540-191000-
SOUTHCENTRAL MOUNTAINS

CITY           SKY/WX    TMP DP  RH WIND       PRES   REMARKS
RUIDOSO        CLOUDY    57  57 100 E7        30.15F FOG

$$
NMZ527>531-191000-
NORTHEAST HIGHLANDS/NORTHEAST PLAINS

CITY           SKY/WX    TMP DP  RH WIND       PRES   REMARKS
LAS VEGAS      LGT RAIN  57  56  96 CALM      30.16F
RATON          CLOUDY    60  58  92 S7        30.11F
CLAYTON        CLOUDY    62  59  90 S12       30.07S

$$
NMZ532>537-191000-
EASTCENTRAL PLAINS

CITY           SKY/WX    TMP DP  RH WIND       PRES   REMARKS
TUCUMCARI      CLOUDY    67  61  81 SE6       30.02F
CANNON AFB     CLOUDY    64  63  94 SE8       30.05S
CLOVIS AIRPORT   N/A     63  61  94 SE5       30.07S

$$
NMZ028-029-538-191000-
SOUTHEAST PLAINS

CITY           SKY/WX    TMP DP  RH WIND       PRES   REMARKS
ROSWELL        RAIN      67  65  93 NE9       29.98S
CARLSBAD       LGT RAIN  68 N/A N/A S12       29.93R
HOBBS          LGT RAIN  66  66 100 E9        29.99F


$$


USA.gov is the U.S. government's official web portal to all federal, state and local government web resources and services.